Погода в Валуйках

Россия / Белгородская область     50°12′40″N   38°05′59″E
темп.,
°C
ветер,
м/с
пор.,
м/с
влажн.,
%
обл.,
%
осадки,
мм/ч
давл.,
гПа
погр.,
м
12 августа, пт
пт1200:00+24всв71550100 0.0 1016456
03:00+23всв51153100 0.0 1017321
06:00+20св5116998 0.0 1017320
09:00+24всв575288 0.0 1017441
12:00+33в6828100 0.0 10171585
15:00+35всв6922100 0.0 10153489
18:00+30в51035100 0.0 1015461
21:00+26св3448100 0.2 101666
13 августа, сб
сб1300:00+26в61343100 0.0 1017484
03:00+24всв61449100 0.0 1016421
06:00+24всв41152100 0.0 1016328
09:00+28в4636100 0.0 1016487
12:00+34вюв682295 0.0 10151884
15:00+36вюв6818100 0.0 10133737
18:00+29в9133598 0.1 1014730
21:00+29в101531100 0.4 1013725
14 августа, вс
вс1400:00+25св61450100 0.0 1014374
03:00+24св5951100 0.0 1014292
06:00+21св5115283 0.0 1014271
09:00+29в69295 0.0 1013683
12:00+34в892063 0.0 10132477
15:00+35в891981 0.0 10113389
18:00+33всв71021100 0.0 10111987
21:00+27всв51434100 0.0 1011362
15 августа, пн
пн1500:00+27в6153097 0.0 1012505
03:00+26в51126100 0.0 1012450
06:00+24всв5123199 0.0 1012365
09:00+27в7112911 0.0 1012510
12:00+35в8101883 0.0 10112512
15:00+35вюв7918100 0.0 10103347
18:00+33всв8112225 0.0 10101073
21:00+31в8152354 0.0 1011758
16 августа, вт
вт1600:00+27вюв9182970 0.0 1012666
03:00+27вюв61425100 0.1 1013712
06:00+24в61430100 0.0 1014570
09:00+25в61236100 0.0 1013583
12:00+28всв71131100 0.0 1012697
15:00+35в81520100 0.0 10093959
18:00+33ююв71125100 0.0 10091012
21:00+28ююв243798 0.0 101075